| time (UTC) | temp F | wind direction | speed MPH | gust MPH | rain 1hr in | rain 24hr in | rain mn in | humidity % | barometer mb |
| 20260502205937 | 88 | 191 | 2.0 | 4.0 | 0.00 | 0.00 | 0.00 | 74 | 1009.1 |
| 20260502205433 | 89 | 314 | 4.0 | 4.0 | 0.00 | 0.00 | 0.00 | 72 | 1009.1 |
| 20260502204931 | 89 | 312 | 4.0 | 6.0 | 0.00 | 0.00 | 0.00 | 71 | 1009.0 |
| 20260502204427 | 89 | 283 | 2.0 | 3.0 | 0.00 | 0.00 | 0.00 | 71 | 1008.9 |
| 20260502203925 | 89 | 323 | 4.0 | 6.0 | 0.00 | 0.00 | 0.00 | 70 | 1008.9 |
| 20260502203423 | 89 | 352 | 2.0 | 4.0 | 0.00 | 0.00 | 0.00 | 70 | 1008.9 |
| 20260502202918 | 89 | 330 | 5.0 | 6.0 | 0.00 | 0.00 | 0.00 | 70 | 1008.9 |
| 20260502202415 | 89 | 41 | 4.0 | 6.0 | 0.00 | 0.00 | 0.00 | 70 | 1009.0 |
| 20260502201914 | 89 | 188 | 2.0 | 3.0 | 0.00 | 0.00 | 0.00 | 70 | 1008.9 |
| 20260502201409 | 89 | 356 | 3.0 | 4.0 | 0.00 | 0.00 | 0.00 | 70 | 1009.1 |
| 20260502200906 | 89 | 107 | 4.0 | 4.0 | 0.00 | 0.00 | 0.00 | 68 | 1009.0 |
| 20260502200401 | 89 | 21 | 3.0 | 6.0 | 0.00 | 0.00 | 0.00 | 68 | 1008.9 |
| 20260502195900 | 89 | 339 | 6.0 | 8.0 | 0.00 | 0.00 | 0.00 | 67 | 1009.0 |
| 20260502195356 | 89 | 290 | 3.0 | 7.0 | 0.00 | 0.00 | 0.00 | 68 | 1009.0 |
| 20260502194853 | 89 | 344 | 2.0 | 4.0 | 0.00 | 0.00 | 0.00 | 68 | 1009.1 |
| 20260502194350 | 88 | 245 | 3.0 | 3.0 | 0.00 | 0.00 | 0.00 | 69 | 1009.1 |
| 20260502193845 | 89 | 307 | 3.0 | 4.0 | 0.00 | 0.00 | 0.00 | 66 | 1009.3 |
| 20260502193343 | 89 | 98 | 5.0 | 9.0 | 0.00 | 0.00 | 0.00 | 66 | 1009.3 |
| 20260502192838 | 89 | 261 | 5.0 | 6.0 | 0.00 | 0.00 | 0.00 | 67 | 1009.4 |
| 20260502192336 | 89 | 2 | 5.0 | 8.0 | 0.00 | 0.00 | 0.00 | 66 | 1009.4 |
| 20260502191832 | 89 | 68 | 1.0 | 1.0 | 0.00 | 0.00 | 0.00 | 67 | 1009.5 |
| 20260502191331 | 90 | 238 | 4.0 | 7.0 | 0.00 | 0.00 | 0.00 | 66 | 1009.7 |
| 20260502190828 | 89 | 15 | 3.0 | 4.0 | 0.00 | 0.00 | 0.00 | 67 | 1009.8 |
| 20260502190325 | 89 | 288 | 4.0 | 6.0 | 0.00 | 0.00 | 0.00 | 66 | 1009.6 |
| 20260502185820 | 89 | 248 | 6.0 | 8.0 | 0.00 | 0.00 | 0.00 | 66 | 1009.7 |
| 20260502185316 | 89 | 328 | 7.0 | 11.0 | 0.00 | 0.00 | 0.00 | 66 | 1009.9 |
| 20260502184814 | 89 | 337 | 6.0 | 7.0 | 0.00 | 0.00 | 0.00 | 65 | 1009.9 |
| 20260502184309 | 89 | 177 | 2.0 | 3.0 | 0.00 | 0.00 | 0.00 | 64 | 1010.0 |
| 20260502183806 | 89 | 21 | 3.0 | 4.0 | 0.00 | 0.00 | 0.00 | 65 | 1010.1 |
| 20260502183302 | 89 | 9 | 3.0 | 6.0 | 0.00 | 0.00 | 0.00 | 65 | 1010.2 |
| 20260502182757 | 90 | 176 | 1.0 | 2.0 | 0.00 | 0.00 | 0.00 | 65 | 1010.0 |
| 20260502182253 | 89 | 282 | 3.0 | 4.0 | 0.00 | 0.00 | 0.00 | 66 | 1010.0 |
| 20260502181750 | 89 | 317 | 5.0 | 7.0 | 0.00 | 0.00 | 0.00 | 65 | 1010.2 |
| 20260502181249 | 89 | 16 | 4.0 | 8.0 | 0.00 | 0.00 | 0.00 | 66 | 1010.2 |
| 20260502180746 | 89 | 299 | 4.0 | 4.0 | 0.00 | 0.00 | 0.00 | 66 | 1010.4 |
| 20260502180243 | 90 | 1 | 6.0 | 9.0 | 0.00 | 0.00 | 0.00 | 65 | 1010.4 |
| 20260502170208 | 89 | 341 | 5.0 | 6.0 | 0.00 | 0.00 | 0.00 | 69 | 1010.8 |
| 20260502164154 | 87 | 357 | 6.0 | 10.0 | 0.00 | 0.00 | 0.00 | 74 | 1011.0 |
| 20260502163650 | 87 | 323 | 4.0 | 6.0 | 0.00 | 0.00 | 0.00 | 74 | 1010.9 |
| 20260502163147 | 87 | 336 | 6.0 | 7.0 | 0.00 | 0.00 | 0.00 | 73 | 1011.2 |
| 20260502162644 | 87 | 37 | 5.0 | 7.0 | 0.00 | 0.00 | 0.00 | 74 | 1011.0 |
| 20260502162141 | 88 | 127 | 3.0 | 4.0 | 0.00 | 0.00 | 0.00 | 73 | 1011.1 |
| 20260502161638 | 87 | 243 | 1.0 | 1.0 | 0.00 | 0.00 | 0.00 | 74 | 1011.1 |
| 20260502161134 | 87 | 53 | 3.0 | 7.0 | 0.00 | 0.00 | 0.00 | 74 | 1011.1 |
| 20260502160632 | 87 | 313 | 4.0 | 4.0 | 0.00 | 0.00 | 0.00 | 75 | 1011.2 |
| 20260502160131 | 87 | 307 | 7.0 | 9.0 | 0.00 | 0.00 | 0.00 | 75 | 1011.0 |
| 20260502152045 | 86 | 344 | 2.0 | 3.0 | 0.00 | 0.00 | 0.00 | 76 | 1011.0 |
| 20260502151542 | 87 | 323 | 3.0 | 4.0 | 0.00 | 0.00 | 0.00 | 76 | 1011.0 |
| 20260502151040 | 86 | 62 | 4.0 | 6.0 | 0.00 | 0.00 | 0.00 | 76 | 1011.0 |
| 20260502150537 | 87 | 335 | 4.0 | 4.0 | 0.00 | 0.00 | 0.00 | 76 | 1011.1 |
| 20260502130422 | 0 | 0.0 | 0.0 | 0.00 | 0.00 | 0.00 | 1010.2 | ||
| 20260502123404 | 0 | 0.0 | 0.0 | 0.00 | 0.00 | 0.00 | 1009.9 | ||
| 20260502122902 | 0 | 0.0 | 0.0 | 0.00 | 0.00 | 0.00 | 1009.8 | ||
| 20260502122358 | 0 | 0.0 | 0.0 | 0.00 | 0.00 | 0.00 | 1009.8 | ||
| 20260502121856 | 0 | 0.0 | 0.0 | 0.00 | 0.00 | 0.00 | 1009.7 | ||
| 20260502121353 | 0 | 0.0 | 0.0 | 0.00 | 0.00 | 0.00 | 1009.8 | ||
| 20260502120850 | 0 | 0.0 | 0.0 | 0.00 | 0.00 | 0.00 | 1009.8 | ||
| 20260502120346 | 0 | 0.0 | 0.0 | 0.00 | 0.00 | 0.00 | 1009.6 | ||
| 20260502115844 | 0 | 0.0 | 0.0 | 0.00 | 0.00 | 0.00 | 1009.7 | ||
| 20260502115341 | 0 | 0.0 | 0.0 | 0.00 | 0.00 | 0.00 | 1009.6 | ||
| 20260502114837 | 0 | 0.0 | 0.0 | 0.00 | 0.00 | 0.00 | 1009.6 | ||
| 20260502114334 | 0 | 0.0 | 0.0 | 0.00 | 0.00 | 0.00 | 1009.4 | ||
| 20260502113831 | 0 | 0.0 | 0.0 | 0.00 | 0.00 | 0.00 | 1009.4 | ||
| 20260502113329 | 0 | 0.0 | 0.0 | 0.00 | 0.00 | 0.00 | 1009.4 | ||
| 20260502112827 | 0 | 0.0 | 0.0 | 0.00 | 0.00 | 0.00 | 1009.4 | ||
| 20260502112324 | 0 | 0.0 | 0.0 | 0.00 | 0.00 | 0.00 | 1009.3 | ||
| 20260502111821 | 0 | 0.0 | 0.0 | 0.00 | 0.00 | 0.00 | 1009.1 | ||
| 20260502111319 | 0 | 0.0 | 0.0 | 0.00 | 0.00 | 0.00 | 1009.1 | ||
| 20260502110816 | 0 | 0.0 | 0.0 | 0.00 | 0.00 | 0.00 | 1009.2 | ||
| 20260502110314 | 0 | 0.0 | 0.0 | 0.00 | 0.00 | 0.00 | 1008.9 | ||
| 20260502105812 | 0 | 0.0 | 0.0 | 0.00 | 0.00 | 0.00 | 1008.7 | ||
| 20260502105308 | 0 | 0.0 | 0.0 | 0.00 | 0.00 | 0.00 | 1009.0 | ||
| 20260502104806 | 0 | 0.0 | 0.0 | 0.00 | 0.00 | 0.00 | 1009.0 | ||
| 20260502104303 | 0 | 0.0 | 0.0 | 0.00 | 0.00 | 0.00 | 1009.0 | ||
| 20260502103800 | 0 | 0.0 | 0.0 | 0.00 | 0.00 | 0.00 | 1008.9 | ||
| 20260502103257 | 0 | 0.0 | 0.0 | 0.00 | 0.00 | 0.00 | 1008.8 | ||
| 20260502102755 | 0 | 0.0 | 0.0 | 0.00 | 0.00 | 0.00 | 1008.7 | ||
| 20260502102251 | 0 | 0.0 | 0.0 | 0.00 | 0.00 | 0.00 | 1008.7 | ||
| 20260502101749 | 0 | 0.0 | 0.0 | 0.00 | 0.00 | 0.00 | 1008.7 | ||
| 20260502101247 | 0 | 0.0 | 0.0 | 0.00 | 0.00 | 0.00 | 1008.6 | ||
| 20260502100745 | 0 | 0.0 | 0.0 | 0.00 | 0.00 | 0.00 | 1008.7 | ||
| 20260502100243 | 0 | 0.0 | 0.0 | 0.00 | 0.00 | 0.00 | 1008.7 | ||
| 20260502091217 | 0 | 0.0 | 0.0 | 0.00 | 0.00 | 0.00 | 1008.5 | ||
| 20260502090715 | 0 | 0.0 | 0.0 | 0.00 | 0.00 | 0.00 | 1008.5 | ||
| 20260502090211 | 0 | 0.0 | 0.0 | 0.00 | 0.00 | 0.00 | 1008.4 | ||
| 20260502071107 | 82 | 73 | 1.0 | 3.0 | 0.00 | 0.00 | 0.00 | 85 | 1009.0 |
| 20260502070605 | 82 | 313 | 6.0 | 8.0 | 0.00 | 0.00 | 0.00 | 85 | 1008.9 |
| 20260502065600 | 82 | 6 | 5.0 | 7.0 | 0.00 | 0.00 | 0.00 | 86 | 1008.9 |
| 20260502065058 | 82 | 335 | 5.0 | 7.0 | 0.00 | 0.00 | 0.00 | 85 | 1008.8 |
| 20260502064556 | 82 | 257 | 1.0 | 1.0 | 0.00 | 0.00 | 0.00 | 85 | 1009.0 |
| 20260502064053 | 82 | 286 | 4.0 | 7.0 | 0.00 | 0.00 | 0.00 | 85 | 1008.8 |
| 20260502063551 | 82 | 38 | 4.0 | 6.0 | 0.00 | 0.00 | 0.00 | 85 | 1009.0 |
| 20260502063048 | 82 | 309 | 5.0 | 7.0 | 0.00 | 0.00 | 0.00 | 86 | 1009.0 |
| 20260502062545 | 82 | 171 | 4.0 | 7.0 | 0.00 | 0.00 | 0.00 | 86 | 1008.9 |
| 20260502062043 | 82 | 275 | 6.0 | 9.0 | 0.00 | 0.00 | 0.00 | 86 | 1009.0 |
| 20260502061541 | 82 | 303 | 5.0 | 7.0 | 0.00 | 0.00 | 0.00 | 86 | 1008.8 |
| 20260502061038 | 82 | 313 | 5.0 | 7.0 | 0.00 | 0.00 | 0.00 | 86 | 1008.9 |
| 20260502060533 | 82 | 1 | 4.0 | 7.0 | 0.00 | 0.00 | 0.00 | 86 | 1009.1 |
| 20260502060030 | 82 | 355 | 3.0 | 4.0 | 0.00 | 0.00 | 0.00 | 86 | 1009.0 |
| 20260502055528 | 82 | 82 | 8.0 | 14.0 | 0.00 | 0.00 | 0.00 | 86 | 1008.9 |
| 20260502055026 | 82 | 345 | 5.0 | 7.0 | 0.00 | 0.00 | 0.00 | 86 | 1009.0 |
| 20260502054525 | 82 | 339 | 2.0 | 3.0 | 0.00 | 0.00 | 0.00 | 86 | 1009.1 |
| 20260502054021 | 82 | 329 | 7.0 | 10.0 | 0.00 | 0.00 | 0.00 | 86 | 1009.0 |
| 20260502053518 | 82 | 302 | 3.0 | 3.0 | 0.00 | 0.00 | 0.00 | 86 | 1009.3 |
| 20260502053016 | 82 | 210 | 1.0 | 1.0 | 0.00 | 0.00 | 0.00 | 86 | 1009.3 |
| 20260502052514 | 82 | 351 | 4.0 | 6.0 | 0.00 | 0.00 | 0.00 | 86 | 1009.2 |
| 20260502052012 | 82 | 135 | 2.0 | 3.0 | 0.00 | 0.00 | 0.00 | 86 | 1009.1 |
| 20260502051510 | 82 | 52 | 8.0 | 10.0 | 0.00 | 0.00 | 0.00 | 86 | 1009.2 |
| 20260502051007 | 83 | 37 | 10.0 | 13.0 | 0.00 | 0.00 | 0.00 | 86 | 1009.2 |
| 20260502050503 | 83 | 27 | 2.0 | 3.0 | 0.00 | 0.00 | 0.00 | 86 | 1009.3 |
| 20260502050000 | 83 | 40 | 5.0 | 6.0 | 0.00 | 0.00 | 0.00 | 86 | 1009.2 |
| 20260502045457 | 83 | 327 | 5.0 | 8.0 | 0.00 | 0.00 | 0.00 | 87 | 1009.3 |
| 20260502044954 | 83 | 335 | 8.0 | 11.0 | 0.00 | 0.00 | 0.00 | 87 | 1009.5 |
| 20260502044450 | 83 | 282 | 6.0 | 13.0 | 0.00 | 0.00 | 0.00 | 87 | 1009.4 |
| 20260502043947 | 83 | 58 | 5.0 | 8.0 | 0.00 | 0.00 | 0.00 | 87 | 1009.3 |
| 20260502043445 | 83 | 351 | 4.0 | 7.0 | 0.00 | 0.00 | 0.00 | 87 | 1009.3 |
| 20260502042944 | 83 | 275 | 1.0 | 2.0 | 0.00 | 0.00 | 0.00 | 87 | 1009.2 |
| 20260502042441 | 83 | 55 | 5.0 | 7.0 | 0.00 | 0.00 | 0.00 | 87 | 1009.2 |
| 20260502041938 | 83 | 17 | 3.0 | 8.0 | 0.00 | 0.00 | 0.00 | 87 | 1009.1 |
| 20260502041436 | 83 | 320 | 9.0 | 11.0 | 0.00 | 0.00 | 0.00 | 87 | 1009.2 |
| 20260502040933 | 83 | 223 | 6.0 | 9.0 | 0.00 | 0.00 | 0.00 | 87 | 1009.3 |
| 20260502040429 | 83 | 31 | 4.0 | 6.0 | 0.00 | 0.00 | 0.00 | 87 | 1009.2 |
| 20260502035926 | 83 | 338 | 10.0 | 13.0 | 0.00 | 0.00 | 0.00 | 87 | 1009.2 |
| 20260502035422 | 83 | 277 | 8.0 | 13.0 | 0.00 | 0.00 | 0.00 | 87 | 1009.2 |
| 20260502034920 | 83 | 311 | 8.0 | 14.0 | 0.00 | 0.00 | 0.00 | 87 | 1009.2 |
| 20260502034419 | 83 | 309 | 3.0 | 4.0 | 0.00 | 0.00 | 0.00 | 87 | 1009.2 |
| 20260502033917 | 83 | 51 | 2.0 | 3.0 | 0.00 | 0.00 | 0.00 | 87 | 1009.0 |
| 20260502033414 | 83 | 64 | 8.0 | 10.0 | 0.00 | 0.00 | 0.00 | 87 | 1009.2 |
| 20260502032910 | 83 | 230 | 6.0 | 10.0 | 0.00 | 0.00 | 0.00 | 87 | 1008.9 |
| 20260502032407 | 83 | 2 | 4.0 | 7.0 | 0.00 | 0.00 | 0.00 | 87 | 1008.7 |
| 20260502031904 | 83 | 320 | 3.0 | 4.0 | 0.00 | 0.00 | 0.00 | 87 | 1008.8 |
| 20260502031402 | 83 | 185 | 3.0 | 4.0 | 0.00 | 0.00 | 0.00 | 87 | 1008.8 |
| 20260502030900 | 83 | 189 | 4.0 | 6.0 | 0.00 | 0.00 | 0.00 | 86 | 1008.5 |
| 20260502030358 | 83 | 341 | 2.0 | 3.0 | 0.00 | 0.00 | 0.00 | 86 | 1008.6 |
| 20260502025855 | 83 | 332 | 6.0 | 9.0 | 0.00 | 0.00 | 0.00 | 86 | 1008.6 |
| 20260502025353 | 83 | 51 | 2.0 | 3.0 | 0.00 | 0.00 | 0.00 | 86 | 1008.2 |
| 20260502024850 | 83 | 271 | 2.0 | 4.0 | 0.00 | 0.00 | 0.00 | 86 | 1008.6 |
| 20260502024348 | 83 | 250 | 4.0 | 8.0 | 0.00 | 0.00 | 0.00 | 86 | 1008.4 |
| 20260502023846 | 83 | 200 | 3.0 | 3.0 | 0.00 | 0.00 | 0.00 | 86 | 1008.4 |
| 20260502023343 | 83 | 220 | 4.0 | 7.0 | 0.00 | 0.00 | 0.00 | 86 | 1008.2 |
| 20260502022841 | 83 | 157 | 3.0 | 4.0 | 0.00 | 0.00 | 0.00 | 86 | 1008.4 |
| 20260502022337 | 83 | 347 | 3.0 | 4.0 | 0.00 | 0.00 | 0.00 | 86 | 1008.2 |
| 20260502021834 | 83 | 228 | 5.0 | 8.0 | 0.00 | 0.00 | 0.00 | 86 | 1008.2 |
| 20260502021331 | 83 | 78 | 4.0 | 6.0 | 0.00 | 0.00 | 0.00 | 86 | 1008.2 |
| 20260502020829 | 83 | 182 | 1.0 | 1.0 | 0.00 | 0.00 | 0.00 | 86 | 1008.2 |
| 20260502020326 | 83 | 100 | 4.0 | 7.0 | 0.00 | 0.00 | 0.00 | 86 | 1008.4 |
| 20260502015823 | 83 | 281 | 2.0 | 3.0 | 0.00 | 0.00 | 0.00 | 86 | 1008.1 |
| 20260502015320 | 83 | 45 | 4.0 | 7.0 | 0.00 | 0.00 | 0.00 | 86 | 1008.1 |
| 20260502014817 | 83 | 260 | 4.0 | 6.0 | 0.00 | 0.00 | 0.00 | 86 | 1008.1 |
| 20260502014314 | 83 | 31 | 3.0 | 6.0 | 0.00 | 0.00 | 0.00 | 86 | 1008.0 |
| 20260502013810 | 83 | 67 | 3.0 | 3.0 | 0.00 | 0.00 | 0.00 | 85 | 1007.9 |
| 20260502013306 | 83 | 0 | 3.0 | 4.0 | 0.00 | 0.00 | 0.00 | 85 | 1007.9 |
| 20260502012803 | 83 | 170 | 4.0 | 4.0 | 0.00 | 0.00 | 0.00 | 85 | 1007.9 |
| 20260502012300 | 83 | 321 | 3.0 | 4.0 | 0.00 | 0.00 | 0.00 | 85 | 1007.9 |
| 20260502011758 | 83 | 5 | 7.0 | 11.0 | 0.00 | 0.00 | 0.00 | 85 | 1007.7 |
| 20260502011254 | 83 | 73 | 3.0 | 6.0 | 0.00 | 0.00 | 0.00 | 84 | 1007.8 |
| 20260502010751 | 83 | 65 | 3.0 | 6.0 | 0.00 | 0.00 | 0.00 | 85 | 1007.6 |
| 20260502010247 | 83 | 19 | 2.0 | 3.0 | 0.00 | 0.00 | 0.00 | 85 | 1007.8 |
| 20260502005744 | 83 | 50 | 3.0 | 4.0 | 0.00 | 0.00 | 0.00 | 85 | 1007.8 |
| 20260502005242 | 83 | 23 | 12.0 | 15.0 | 0.00 | 0.00 | 0.00 | 84 | 1007.8 |
| 20260502004739 | 83 | 29 | 4.0 | 7.0 | 0.00 | 0.00 | 0.00 | 84 | 1007.8 |
| 20260502004235 | 83 | 241 | 1.0 | 1.0 | 0.00 | 0.00 | 0.00 | 84 | 1007.3 |
| 20260502003733 | 83 | 321 | 1.0 | 2.0 | 0.00 | 0.00 | 0.00 | 84 | 1007.6 |
| 20260502003230 | 83 | 138 | 3.0 | 6.0 | 0.00 | 0.00 | 0.00 | 84 | 1007.5 |
| 20260502002726 | 83 | 43 | 5.0 | 8.0 | 0.00 | 0.00 | 0.00 | 83 | 1007.4 |
| 20260502002224 | 83 | 317 | 3.0 | 6.0 | 0.00 | 0.00 | 0.00 | 83 | 1007.5 |
| 20260502001720 | 83 | 135 | 4.0 | 6.0 | 0.00 | 0.00 | 0.00 | 83 | 1007.2 |
| 20260502001219 | 84 | 40 | 2.0 | 3.0 | 0.00 | 0.00 | 0.00 | 83 | 1007.1 |
| 20260502000716 | 84 | 18 | 2.0 | 3.0 | 0.00 | 0.00 | 0.00 | 83 | 1007.2 |
| 20260502000214 | 84 | 88 | 2.0 | 3.0 | 0.00 | 0.00 | 0.00 | 83 | 1007.2 |
| 20260501235709 | 84 | 211 | 1.0 | 2.0 | 0.00 | 0.00 | 0.00 | 83 | 1007.3 |
| 20260501235205 | 84 | 317 | 9.0 | 15.0 | 0.00 | 0.00 | 0.00 | 82 | 1007.1 |
| 20260501234701 | 84 | 209 | 1.0 | 1.0 | 0.00 | 0.00 | 0.00 | 82 | 1007.2 |
| 20260501234159 | 84 | 82 | 5.0 | 7.0 | 0.00 | 0.00 | 0.00 | 81 | 1007.0 |
| 20260501233657 | 84 | 284 | 6.0 | 9.0 | 0.00 | 0.00 | 0.00 | 81 | 1007.1 |
| 20260501233153 | 85 | 105 | 3.0 | 4.0 | 0.00 | 0.00 | 0.00 | 80 | 1006.9 |
| 20260501232649 | 85 | 315 | 2.0 | 2.0 | 0.00 | 0.00 | 0.00 | 80 | 1006.9 |
| 20260501232147 | 86 | 8 | 5.0 | 7.0 | 0.00 | 0.00 | 0.00 | 79 | 1006.8 |
| 20260501231644 | 85 | 91 | 1.0 | 1.0 | 0.00 | 0.00 | 0.00 | 78 | 1006.8 |
| 20260501231143 | 86 | 54 | 2.0 | 4.0 | 0.00 | 0.00 | 0.00 | 78 | 1006.8 |
| 20260501230641 | 86 | 328 | 6.0 | 11.0 | 0.00 | 0.00 | 0.00 | 78 | 1006.7 |
| 20260501230139 | 86 | 260 | 4.0 | 6.0 | 0.00 | 0.00 | 0.00 | 76 | 1006.9 |
| 20260501225636 | 86 | 75 | 9.0 | 11.0 | 0.00 | 0.00 | 0.00 | 76 | 1006.8 |
| 20260501225132 | 86 | 194 | 2.0 | 3.0 | 0.00 | 0.00 | 0.00 | 75 | 1006.8 |
| 20260501224629 | 86 | 9 | 3.0 | 7.0 | 0.00 | 0.00 | 0.00 | 76 | 1006.6 |
| 20260501224126 | 86 | 225 | 5.0 | 9.0 | 0.00 | 0.00 | 0.00 | 75 | 1006.7 |
| 20260501223623 | 87 | 338 | 7.0 | 10.0 | 0.00 | 0.00 | 0.00 | 74 | 1006.6 |
| 20260501223119 | 87 | 88 | 5.0 | 9.0 | 0.00 | 0.00 | 0.00 | 75 | 1006.6 |
| 20260501222615 | 87 | 224 | 3.0 | 4.0 | 0.00 | 0.00 | 0.00 | 75 | 1006.7 |
| 20260501222112 | 87 | 240 | 2.0 | 3.0 | 0.00 | 0.00 | 0.00 | 75 | 1006.6 |
| 20260501221609 | 87 | 63 | 6.0 | 9.0 | 0.00 | 0.00 | 0.00 | 75 | 1006.6 |
| 20260501221107 | 87 | 289 | 4.0 | 7.0 | 0.00 | 0.00 | 0.00 | 74 | 1006.5 |
| 20260501220605 | 87 | 80 | 2.0 | 6.0 | 0.00 | 0.00 | 0.00 | 74 | 1006.8 |
| 20260501220101 | 87 | 278 | 4.0 | 4.0 | 0.00 | 0.00 | 0.00 | 74 | 1006.7 |
| 20260501215557 | 88 | 332 | 5.0 | 6.0 | 0.00 | 0.00 | 0.00 | 74 | 1006.6 |
| 20260501215053 | 88 | 21 | 2.0 | 3.0 | 0.00 | 0.00 | 0.00 | 74 | 1006.8 |
| 20260501214548 | 88 | 222 | 1.0 | 2.0 | 0.00 | 0.00 | 0.00 | 73 | 1006.7 |
| 20260501214044 | 88 | 250 | 2.0 | 2.0 | 0.00 | 0.00 | 0.00 | 73 | 1006.8 |
| 20260501213541 | 87 | 284 | 5.0 | 7.0 | 0.00 | 0.00 | 0.00 | 75 | 1006.6 |
| 20260501213037 | 89 | 167 | 6.0 | 8.0 | 0.00 | 0.00 | 0.00 | 72 | 1006.6 |
| 20260501212533 | 88 | 258 | 3.0 | 4.0 | 0.00 | 0.00 | 0.00 | 73 | 1006.8 |
| 20260501212031 | 89 | 19 | 5.0 | 9.0 | 0.00 | 0.00 | 0.00 | 72 | 1006.7 |
| 20260501211527 | 88 | 258 | 2.0 | 2.0 | 0.00 | 0.00 | 0.00 | 72 | 1006.7 |
| 20260501211026 | 88 | 195 | 2.0 | 3.0 | 0.00 | 0.00 | 0.00 | 72 | 1006.7 |
| 20260501210521 | 88 | 311 | 6.0 | 8.0 | 0.00 | 0.00 | 0.00 | 70 | 1006.7 |